Location: Clermont
(50.2608°N, 4.3172°E)
Time: 21:11:54
(UTC+00:00)

Cosmos 1633 Rocket - Pass Details

Date: 13 August 2020
Orbit: 606 x 624 km, 82.5° (Epoch: 22 September)

Event Time Altitude Azimuth Distance (km) Brightness Sun altitude
Rises 20:36:45 0° 201° (SSW) 2,896 6.3 -13.1°
Reaches altitude 10° 20:39:01 10° 206° (SSW) 1,993 5.5 -13.4°
Maximum altitude 20:43:20 54° 284° (WNW) 763 3.8 -13.9°
Drops below altitude 10° 20:47:42 10° 2° (N) 2,002 6.3 -14.4°
Sets 20:49:59 0° 7° (N) 2,910 7.1 -14.6°
